EW3775 Weather Reports


Display with metric or nautical units.
time (UTC)temp
F
wind
direction
speed
MPH
gust
MPH
rain 1hr
in
rain 24hr
in
rain mn
in
humidity
%
barometer
mb
20190219020420 18 331 0.0 0.0 0.00 0.01 0.01 81 1024.0
20190219014914 18 288 2.0 4.0 0.00 0.01 0.01 80 1023.7
20190219013415 18 273 0.0 4.0 0.00 0.01 0.01 80 1023.5
20190219011919 18 298 0.0 0.0 0.00 0.01 0.01 80 1023.4
20190219010419 18 339 0.0 0.0 0.00 0.01 0.01 79 1023.2
20190219004924 18 338 2.0 3.0 0.00 0.01 0.01 79 1023.0
20190219003425 18 318 2.0 4.0 0.00 0.01 0.01 78 1022.7
20190219001925 19 305 0.0 8.0 0.00 0.01 0.01 77 1022.4
20190219000414 19 285 0.0 3.0 0.00 0.01 0.01 79 1022.2
20190218234932 19 345 0.0 6.0 0.00 0.01 0.01 77 1021.8
20190218233416 19 328 1.0 8.0 0.00 0.01 0.01 80 1021.3
20190218231917 19 319 1.0 9.0 0.00 0.01 0.01 80 1020.8
20190218230428 20 328 5.0 9.0 0.00 0.01 0.01 80 1020.3
20190218224914 20 289 2.0 11.0 0.00 0.01 0.01 80 1019.8
20190218223415 20 258 3.0 7.0 0.00 0.01 0.01 80 1019.1
20190218221927 20 298 2.0 4.0 0.00 0.01 0.01 79 1018.6
20190218220432 20 354 5.0 11.0 0.00 0.01 0.01 78 1018.2
20190218214931 21 251 5.0 9.0 0.00 0.01 0.01 78 1017.7
20190218213419 22 47 4.0 9.0 0.00 0.01 0.01 79 1017.2
20190218211916 22 279 5.0 10.0 0.00 0.01 0.01 78 1016.7
20190218210416 22 287 3.0 9.0 0.00 0.01 0.01 80 1016.2
20190218204921 22 274 5.0 10.0 0.00 0.01 0.01 80 1016.0
20190218203421 22 248 4.0 9.0 0.00 0.01 0.01 80 1015.6
20190218201927 22 296 5.0 11.0 0.00 0.01 0.01 79 1015.3
20190218200422 23 256 6.0 10.0 0.00 0.01 0.01 80 1014.7
20190218194924 24 226 0.0 6.0 0.00 0.01 0.01 82 1014.0
20190218193430 24 297 3.0 9.0 0.00 0.01 0.01 81 1013.6
20190218191931 25 223 2.0 7.0 0.00 0.01 0.01 82 1013.2
20190218190418 26 196 1.0 7.0 0.00 0.01 0.01 82 1012.9
20190218184916 26 277 3.0 7.0 0.00 0.01 0.01 82 1012.5
20190218183420 26 280 2.0 7.0 0.00 0.01 0.01 83 1012.1
20190218181924 26 299 3.0 12.0 0.00 0.01 0.01 82 1011.9
20190218180406 26 331 3.0 5.0 0.00 0.01 0.01 83 1011.7
20190218174912 27 295 1.0 9.0 0.00 0.01 0.01 83 1011.3
20190218173415 27 354 1.0 4.0 0.00 0.01 0.01 84 1011.1
20190218171917 27 346 4.0 9.0 0.01 0.01 0.01 84 1010.6
20190218170424 28 345 2.0 8.0 0.01 0.01 0.01 84 1010.2
20190218164908 30 312 2.0 5.0 0.01 0.01 0.01 86 1009.9
20190218163415 30 4 0.0 5.0 0.01 0.01 0.01 87 1009.2
20190218161916 30 257 0.0 2.0 0.00 0.00 0.00 88 1008.9
20190218160418 30 78 0.0 0.0 0.00 0.00 0.00 88 1008.3
20190218154905 30 78 0.0 0.0 0.00 0.00 0.00 90 1008.1
20190218153409 29 78 0.0 0.0 0.00 0.00 0.00 89 1007.9
20190218151915 29 78 0.0 0.0 0.00 0.00 0.00 89 1007.5
20190218150418 29 78 0.0 0.0 0.00 0.00 0.00 90 1007.3
20190218144921 29 78 0.0 0.0 0.00 0.00 0.00 90 1007.0
20190218143408 28 78 0.0 0.0 0.00 0.00 0.00 90 1006.8
20190218141910 28 78 0.0 0.0 0.00 0.00 0.00 91 1006.7
20190218140415 28 78 0.0 0.0 0.00 0.00 0.00 92 1006.7
20190218134918 27 23 0.0 0.0 0.00 0.00 0.00 92 1006.6
20190218133421 27 56 0.0 0.0 0.00 0.00 0.00 92 1006.6
20190218131906 26 56 0.0 0.0 0.00 0.00 0.00 91 1006.5
20190218130406 26 63 0.0 0.0 0.00 0.00 0.00 91 1006.6
20190218124910 26 63 0.0 0.0 0.00 0.00 0.00 91 1006.3
20190218123413 26 63 0.0 0.0 0.00 0.00 0.00 92 1006.1
20190218121914 26 31 0.0 0.0 0.00 0.00 0.00 91 1005.9
20190218120420 27 63 0.0 0.0 0.00 0.00 0.00 92 1006.1
20190218114923 26 63 0.0 0.0 0.00 0.00 0.00 92 1006.1
20190218113410 27 91 1.0 3.0 0.00 0.00 0.00 92 1006.1
20190218111913 26 75 0.0 0.0 0.00 0.00 0.00 93 1006.3
20190218110417 27 76 0.0 1.0 0.00 0.00 0.00 92 1006.2
20190218104918 27 67 0.0 4.0 0.00 0.00 0.00 92 1006.3
20190218103420 27 63 0.0 4.0 0.00 0.00 0.00 92 1006.5
20190218101924 27 64 1.0 5.0 0.00 0.00 0.00 92 1006.5
20190218100425 27 81 0.0 2.0 0.00 0.00 0.00 92 1006.4
20190218094906 27 62 0.0 1.0 0.00 0.00 0.00 92 1006.5
20190218093415 27 67 2.0 4.0 0.00 0.00 0.00 92 1006.2
20190218091918 27 72 0.0 0.0 0.00 0.00 0.00 91 1006.4
20190218090425 28 85 0.0 4.0 0.00 0.00 0.00 91 1006.4
20190218084907 28 29 0.0 0.0 0.00 0.00 0.00 91 1006.9
20190218083408 28 58 0.0 0.0 0.00 0.00 0.00 90 1007.1
20190218081914 28 56 0.0 0.0 0.00 0.00 0.00 90 1007.2
20190218080416 28 73 0.0 0.0 0.00 0.00 0.00 90 1007.2
20190218074922 28 73 0.0 0.0 0.00 0.00 0.00 90 1007.5
20190218073423 28 83 2.0 4.0 0.00 0.00 0.00 89 1007.5
20190218071906 28 89 0.0 1.0 0.00 0.00 0.00 89 1008.2
20190218070414 28 77 0.0 6.0 0.00 0.00 0.00 90 1008.3
20190218064917 28 90 0.0 4.0 0.00 0.00 0.00 90 1008.7
20190218063422 28 56 0.0 0.0 0.00 0.00 0.00 90 1008.8
20190218061923 28 70 0.0 0.0 0.00 0.00 0.00 90 1008.9
20190218060407 29 73 1.0 3.0 0.00 0.00 0.00 90 1009.0
20190218054912 29 93 1.0 3.0 0.00 0.00 0.00 89 1009.3
20190218053416 29 102 0.0 0.0 0.00 0.00 0.00 89 1009.7
20190218051923 29 102 0.0 0.0 0.00 0.00 0.00 89 1009.9
20190218050408 29 102 0.0 0.0 0.00 0.00 0.00 89 1009.8
20190218044911 29 77 0.0 3.0 0.00 0.00 0.00 89 1010.3
20190218043418 29 118 0.0 0.0 0.00 0.00 0.00 90 1010.1
20190218041921 29 118 0.0 2.0 0.00 0.00 0.00 90 1010.3
20190218040423 29 110 0.0 0.0 0.00 0.00 0.00 89 1010.6
20190218034924 29 89 0.0 3.0 0.00 0.00 0.00 90 1010.7
20190218033424 29 100 0.0 0.0 0.00 0.00 0.00 90 1011.0
20190218031910 29 108 0.0 0.0 0.00 0.00 0.00 89 1010.9
20190218030413 29 142 0.0 0.0 0.00 0.00 0.00 88 1011.2
20190218024918 29 222 0.0 4.0 0.00 0.00 0.00 85 1011.8
20190218023420 30 174 0.0 1.0 0.00 0.00 0.00 79 1011.4
20190218021921 31 133 0.0 0.0 0.00 0.00 0.00 75 1011.5